Weather History for Mora, MN

Change the Weather History Date:

Monday, November 18, 2013

  Actual Average Record
Temperature  
Mean Temperature 24 °F -  
Max Temperature 32 °F 37 °F 61 °F (1941)
Min Temperature 17 °F 20 °F -5 °F (1986)
Degree Days  
Heating Degree Days 40    
Moisture  
Dew Point 19 °F    
Average Humidity 76    
Maximum Humidity 93    
Minimum Humidity 64    
Precipitation  
Precipitation 0.00 in - - ()
Sea Level Pressure  
Sea Level Pressure 30.08 in    
Wind  
Wind Speed 12 mph (NW)    
Max Wind Speed 18 mph    
Max Gust Speed 26 mph    
Visibility 10 miles    
Events      
Averages and records for this station are not official NWS values.
T = Trace of Precipitation, MM = Missing Value Source: NWS Daily Summary

Daily Weather History Graph

Daily Weather History Graph

Search for Another Location

Airport:

Trip Planner

Search our weather history database for the weather conditions in past years. The results will help you decide how hot, cold, wet, or windy it might be!

Date:

Astronomy

Nov. 18, 2013 Rise Set
Actual Time 7:17 AM CST 4:38 PM CST
Civil Twilight 6:45 AM CST 5:11 PM CST
Nautical Twilight 6:08 AM CST 5:47 PM CST
Astronomical Twilight 5:33 AM CST 6:22 PM CST
Moon 5:40 PM CST (11/18) 8:07 AM CST (11/18)
Length of Visible Light 10h 26m
Length of Day
9h 20m
Full, 99% of the Moon is Illuminated
Nov 18
Full
Nov 25
Last Quarter
Dec 2
New
Dec 9
First Quarter
Dec 17
Full

Hourly Weather History & Observations

Time (CST) Temp. Windchill Dew Point Humidity Pressure Visibility Wind Dir Wind Speed Gust Speed Precip Events Conditions
12:14 AM 28.4 °F 18.5 °F 21.2 °F 74% 29.79 in 10.0 mi WNW 11.5 mph 20.7 mph N/A   Overcast
12:34 AM 28.4 °F 16.2 °F 21.2 °F 74% 29.79 in 10.0 mi WNW 17.3 mph 23.0 mph N/A   Overcast
12:54 AM 28.4 °F 16.2 °F 21.2 °F 74% 29.80 in 10.0 mi WNW 17.3 mph 21.9 mph N/A   Overcast
1:14 AM 28.4 °F 16.6 °F 19.4 °F 69% 29.82 in 10.0 mi NW 16.1 mph 21.9 mph N/A   Overcast
1:34 AM 26.6 °F 15.2 °F 19.4 °F 74% 29.82 in 10.0 mi NW 13.8 mph 23.0 mph N/A   Overcast
1:54 AM 26.6 °F 14.7 °F 19.4 °F 74% 29.83 in 10.0 mi WNW 15.0 mph 24.2 mph N/A   Overcast
2:14 AM 26.6 °F 14.3 °F 19.4 °F 74% 29.85 in 10.0 mi WNW 16.1 mph 20.7 mph N/A   Overcast
2:34 AM 26.6 °F 13.4 °F 19.4 °F 74% 29.85 in 10.0 mi WNW 18.4 mph 26.5 mph N/A   Overcast
2:54 AM 26.6 °F 14.7 °F 19.4 °F 74% 29.87 in 10.0 mi WNW 15.0 mph 24.2 mph N/A   Overcast
3:14 AM 26.6 °F 14.7 °F 19.4 °F 74% 29.87 in 10.0 mi NW 15.0 mph 24.2 mph N/A   Overcast
3:34 AM 26.6 °F 15.7 °F 19.4 °F 74% 29.88 in 10.0 mi NW 12.7 mph 23.0 mph N/A   Overcast
3:54 AM 26.6 °F 15.2 °F 19.4 °F 74% 29.89 in 10.0 mi WNW 13.8 mph 23.0 mph N/A   Overcast
4:14 AM 26.6 °F 15.2 °F 19.4 °F 74% 29.90 in 10.0 mi WNW 13.8 mph 18.4 mph N/A   Overcast
4:34 AM 26.6 °F 13.8 °F 19.4 °F 74% 29.90 in 10.0 mi WNW 17.3 mph 25.3 mph N/A   Overcast
4:54 AM 26.6 °F 15.7 °F 19.4 °F 74% 29.92 in 10.0 mi WNW 12.7 mph 20.7 mph N/A   Overcast
5:14 AM 26.6 °F 13.4 °F 19.4 °F 74% 29.93 in 10.0 mi WNW 18.4 mph 24.2 mph N/A   Overcast
5:34 AM 26.6 °F 15.7 °F 19.4 °F 74% 29.94 in 10.0 mi WNW 12.7 mph 19.6 mph N/A   Overcast
5:54 AM 26.6 °F 16.2 °F 19.4 °F 74% 29.94 in 10.0 mi WNW 11.5 mph 19.6 mph N/A   Overcast
6:14 AM 26.6 °F 14.7 °F 19.4 °F 74% 29.95 in 10.0 mi WNW 15.0 mph 21.9 mph N/A   Overcast
6:34 AM 26.6 °F 13.4 °F 19.4 °F 74% 29.96 in 10.0 mi NW 18.4 mph 24.2 mph N/A   Overcast
6:54 AM 26.6 °F 14.7 °F 19.4 °F 74% 29.97 in 10.0 mi WNW 15.0 mph 23.0 mph N/A   Overcast
7:14 AM 26.6 °F 15.7 °F 19.4 °F 74% 29.99 in 10.0 mi WNW 12.7 mph 25.3 mph N/A   Overcast
7:34 AM 26.6 °F 16.2 °F 19.4 °F 74% 30.00 in 10.0 mi WNW 11.5 mph 17.3 mph N/A   Overcast
7:54 AM 26.6 °F 16.2 °F 19.4 °F 74% 30.01 in 10.0 mi NW 11.5 mph 18.4 mph N/A   Overcast
8:14 AM 26.6 °F 16.8 °F 19.4 °F 74% 30.01 in 10.0 mi WNW 10.4 mph 18.4 mph N/A   Overcast
8:34 AM 26.6 °F 17.5 °F 19.4 °F 74% 30.02 in 10.0 mi WNW 9.2 mph - N/A   Overcast
8:54 AM 26.6 °F 16.2 °F 19.4 °F 74% 30.04 in 10.0 mi WNW 11.5 mph 18.4 mph N/A   Overcast
9:14 AM 26.6 °F 15.2 °F 19.4 °F 74% 30.05 in 10.0 mi WNW 13.8 mph 19.6 mph N/A   Overcast
9:34 AM 26.6 °F 15.2 °F 19.4 °F 74% 30.06 in 10.0 mi NW 13.8 mph 17.3 mph N/A   Overcast
9:54 AM 26.6 °F 16.2 °F 19.4 °F 74% 30.08 in 10.0 mi WNW 11.5 mph - N/A   Overcast
10:14 AM 26.6 °F 16.2 °F 19.4 °F 74% 30.10 in 10.0 mi WNW 11.5 mph 17.3 mph N/A   Overcast
10:34 AM 26.6 °F 15.2 °F 17.6 °F 69% 30.10 in 10.0 mi WNW 13.8 mph 17.3 mph N/A   Overcast
10:54 AM 26.6 °F 15.2 °F 19.4 °F 74% 30.11 in 10.0 mi NW 13.8 mph 23.0 mph N/A   Overcast
11:14 AM 26.6 °F 15.2 °F 19.4 °F 74% 30.12 in 10.0 mi WNW 13.8 mph 18.4 mph N/A   Overcast
11:34 AM 26.6 °F 15.7 °F 19.4 °F 74% 30.12 in 10.0 mi WNW 12.7 mph - N/A   Overcast
11:54 AM 26.6 °F 16.2 °F 19.4 °F 74% 30.13 in 10.0 mi WNW 11.5 mph - N/A   Overcast
12:14 PM 26.6 °F 16.8 °F 19.4 °F 74% 30.14 in 10.0 mi WNW 10.4 mph - N/A   Overcast
12:34 PM 26.6 °F 16.8 °F 19.4 °F 74% 30.14 in 10.0 mi NW 10.4 mph - N/A   Overcast
12:54 PM 26.6 °F 16.2 °F 19.4 °F 74% 30.14 in 10.0 mi WNW 11.5 mph 19.6 mph N/A   Overcast
1:14 PM 26.6 °F 16.2 °F 19.4 °F 74% 30.15 in 10.0 mi West 11.5 mph 17.3 mph N/A   Overcast
1:34 PM 28.4 °F 18.0 °F 19.4 °F 69% 30.16 in 10.0 mi NW 12.7 mph - N/A   Overcast
1:54 PM 28.4 °F 19.7 °F 19.4 °F 69% 30.16 in 10.0 mi NW 9.2 mph 16.1 mph N/A   Overcast
2:14 PM 28.4 °F 18.5 °F 19.4 °F 69% 30.16 in 10.0 mi WNW 11.5 mph - N/A   Overcast
2:34 PM 28.4 °F 17.5 °F 19.4 °F 69% 30.17 in 10.0 mi NW 13.8 mph 17.3 mph N/A   Overcast
2:54 PM 32.0 °F 23.6 °F 21.2 °F 64% 30.17 in 10.0 mi NW 10.4 mph - N/A   Overcast
3:14 PM 30.2 °F 20.8 °F 19.4 °F 64% 30.17 in 10.0 mi NNW 11.5 mph - N/A   Mostly Cloudy
3:34 PM 30.2 °F 21.3 °F 19.4 °F 64% 30.18 in 10.0 mi NNW 10.4 mph - N/A   Mostly Cloudy
3:54 PM 30.2 °F 23.4 °F 19.4 °F 64% 30.19 in 10.0 mi NNW 6.9 mph - N/A   Mostly Cloudy
4:14 PM 28.4 °F 20.4 °F 19.4 °F 69% 30.19 in 10.0 mi NNW 8.1 mph - N/A   Mostly Cloudy
4:34 PM 28.4 °F 19.7 °F 19.4 °F 69% 30.19 in 10.0 mi NW 9.2 mph - N/A   Overcast
4:54 PM 26.6 °F 19.1 °F 19.4 °F 74% 30.20 in 10.0 mi NNW 6.9 mph - N/A   Mostly Cloudy
5:14 PM 26.6 °F 20.0 °F 19.4 °F 74% 30.20 in 10.0 mi NW 5.8 mph - N/A   Mostly Cloudy
5:34 PM 26.6 °F 22.6 °F 19.4 °F 74% 30.21 in 10.0 mi NW 3.5 mph - N/A   Mostly Cloudy
5:54 PM 26.6 °F 21.2 °F 21.2 °F 80% 30.22 in 10.0 mi NW 4.6 mph - N/A   Mostly Cloudy
6:14 PM 26.6 °F 19.1 °F 19.4 °F 74% 30.22 in 10.0 mi NNW 6.9 mph - N/A   Mostly Cloudy
6:34 PM 26.6 °F 21.2 °F 19.4 °F 74% 30.22 in 10.0 mi NNW 4.6 mph - N/A   Scattered Clouds
6:54 PM 24.8 °F 20.5 °F 19.4 °F 80% 30.22 in 10.0 mi NW 3.5 mph - N/A   Clear
7:14 PM 24.8 °F - 19.4 °F 80% 30.22 in 10.0 mi Calm Calm - N/A   Clear
7:34 PM 23.0 °F - 17.6 °F 80% 30.22 in 10.0 mi Calm Calm - N/A   Mostly Cloudy
7:54 PM 21.2 °F - 17.6 °F 86% 30.23 in 10.0 mi Calm Calm - N/A   Mostly Cloudy
8:14 PM 21.2 °F - 17.6 °F 86% 30.24 in 10.0 mi Calm Calm - N/A   Scattered Clouds
8:34 PM 19.4 °F - 15.8 °F 86% 30.24 in 10.0 mi Calm Calm - N/A   Clear
8:54 PM 19.4 °F - 15.8 °F 86% 30.24 in 10.0 mi Calm Calm - N/A   Clear
9:14 PM 19.4 °F - 17.6 °F 93% 30.24 in 10.0 mi Calm Calm - N/A   Clear
9:34 PM 19.4 °F - 15.8 °F 86% 30.24 in 10.0 mi Calm Calm - N/A   Clear
9:54 PM 17.6 °F - 15.8 °F 93% 30.24 in 10.0 mi Calm Calm - N/A   Clear
10:14 PM 17.6 °F - 15.8 °F 93% 30.24 in 10.0 mi Calm Calm - N/A   Clear
10:34 PM 17.6 °F - 14.0 °F 86% 30.23 in 10.0 mi Calm Calm - N/A   Clear
10:54 PM 17.6 °F - 15.8 °F 93% 30.24 in 10.0 mi Calm Calm - N/A   Clear
11:14 PM 17.6 °F - 14.0 °F 86% 30.24 in 10.0 mi Calm Calm - N/A   Clear
11:34 PM 17.6 °F - 14.0 °F 86% 30.24 in 10.0 mi Calm Calm - N/A   Clear
11:54 PM 17.6 °F - 14.0 °F 86% 30.24 in 10.0 mi Calm Calm - N/A   Clear